Location: Chuathbaluk
(61.5726°N, 159.2454°W)
Time: 07:59:53
(UTC+00:00)

NUDT-PHONESAT - Pass Details

Date: 23 January 2021
Orbit: 479 x 498 km, 97.4° (Epoch: 08 March)

Event Time Altitude Azimuth Distance (km) Brightness Sun altitude
Rises 17:13:09 0° 19° (NNE) 2,613 ? -14.1°
Reaches altitude 10° 17:15:19 10° 26° (NNE) 1,724 ? -13.8°
Maximum altitude 17:18:53 44° 100° (E) 704 ? -13.4°
Drops below altitude 10° 17:22:26 10° 173° (S) 1,708 ? -13.0°
Sets 17:24:34 0° 180° (S) 2,585 ? -12.7°
